Location: Unspecified
(17.6330°N, 0.0000°E)
Time: 20:59:49
(UTC+00:00)

S-56A Canister/Altair - Pass Details

Date: 02 July 2019
Orbit: 632 x 2500 km, 38.9° (Epoch: 15 July)

Event Time Altitude Azimuth Distance (km) Brightness Sun altitude
Rises 18:27:21 0° 311° (NW) 4,473 13.2 1.7°
Reaches altitude 10° 18:31:00 10° 318° (NW) 3,181 12.1 0.9°
Maximum altitude 18:37:59 44° 28° (NNE) 1,249 8.6 -0.6°
Drops below altitude 10° 18:42:57 10° 101° (E) 2,260 9.3 -1.7°
Enters shadow 18:44:39 - 107° (ESE) 2,881 9.8 -2.1°
Sets 18:45:08 0° 108° (ESE) 3,063 - -2.2°
